{"data":{"norad_id":22787,"epoch":"2026-05-24T17:36:48.727584Z","epoch_age_seconds":91193,"freshness":"FRESH","line1":"1 22787U 93056A   26144.73389731  .00000116  00000+0  00000+0 0  9993","line2":"2 22787  11.8870   3.6853 0007989   2.2920 169.2662  1.00277887118312","mean_motion":1.00277887,"eccentricity":0.0007989,"inclination_deg":11.887,"raan_deg":3.6853,"arg_perigee_deg":2.292,"mean_anomaly_deg":169.2662,"bstar":0,"rev_number":11831,"period_min":1436.0095162356,"perigee_km":35751.200398001,"apogee_km":35818.568473651,"semimajor_km":42163.021435826,"source":"CELESTRAK","updated_at":"2026-05-25T13:38:13.804970Z"}}